Regional Weather Roundup
Issued by NWS Sterling, VA

Current Version | Previous Version | Text Only | Print | Product List | Glossary On
Versions: 1 2 3 4 5 6 7 8 9 10 11 12 13 14 15 16 17 18 19 20 21 22 23 24 25 26 27 28 29 30 31 32 33 34 35 36 37 38 39 40 41 42 43 44 45 46 47 48 49 50
000
ASUS41 KLWX 130611
RWRLWX

REGIONAL WEATHER ROUNDUP
NATIONAL WEATHER SERVICE BALTIMORE MD/WASHINGTON DC
100 AM EST FRI DEC 13 2019

Note: "FAIR" indicates few or no clouds below 12,000 feet
with no significant weather and/or obstructions to visibility.
 TC=TEMPERATURE CELSIUS

 * =Non NWS site. Station does not report precipitation (e.g. rain,
    snow, etc.), thunder, or fog.

DCZ001-MDZ009-015-VAZ040>042-051-053>054-130700-
WASHINGTON METRO

CITY           SKY/WX    TMP DP  RH WIND       PRES   REMARKS
WASHINGTON NAT FAIR      34  25  69 NE5       30.52F WCI  30
DULLES         CLOUDY    34  20  56 S3        30.51F
ANDREWS AFB    MOCLDY    28  23  83 N6        30.49F WCI  21
FT BELVOIR     MOCLDY    30  24  76 CALM      30.51F
QUANTICO       MOCLDY    31  26  82 W8        30.53F WCI  23
COLLEGE PARK*  FAIR      30  20  65 CALM      30.51F
LEESBURG*      CLOUDY    32  25  74 CALM      30.52F
MANASSAS*      CLOUDY    31  26  82 CALM      30.52F
GAITHERSBURG*  MOCLDY    30  21  69 CALM      30.50F

$$

MDZ006>007-011-014-130700-
BALTIMORE METRO

CITY           SKY/WX    TMP DP  RH WIND       PRES   REMARKS
BWI AIRPORT    CLOUDY    33  25  72 N3        30.51F
MD SCIENCE CTR   N/A     34  27  75 MISG      30.52F
MARTIN STATE   CLOUDY    32  30  93 CALM      30.54F
ANNAPOLIS      FAIR      36  30  79 N3        30.51F
FORT MEADE*    FAIR      28  23  80 CALM      30.54F

$$

MDZ012-015-019>023-130700-
MARYLAND EASTERN SHORE

CITY           SKY/WX    TMP DP  RH WIND       PRES   REMARKS
OCEAN CITY     FAIR      46  36  68 SE15      30.50F
SALISBURY      FAIR      32  28  85 CALM      30.49F
BAY BRIDGE AP* FAIR      30  28  93 CALM      30.52F
CAMBRIDGE*     PTCLDY    28  27  93 CALM      30.49F

$$

MDZ017>025-130700-
SOUTHERN MARYLAND

CITY           SKY/WX    TMP DP  RH WIND       PRES   REMARKS
PATUXENT RIVER FAIR      36  31  82 E8        30.49F WCI  30
ST INIGOES     FAIR      41  32  70 NE5       30.48F
LEONARDTOWN*     N/A     32  28  86 CALM      30.50F

$$

MDZ003>005-130700-
NORTH CENTRAL MARYLAND

CITY           SKY/WX    TMP DP  RH WIND       PRES   REMARKS
FREDERICK*     CLOUDY    32  25  74 CALM      30.52F
HAGERSTOWN APT CLOUDY    33  19  56 S10       30.48F WCI  25

$$

MDZ501>502-130700-
WESTERN MARYLAND

CITY           SKY/WX    TMP DP  RH WIND       PRES   REMARKS
OAKLAND*       FAIR      23  18  80 SE16G23   30.25F WCI  10
CUMBERLAND*    FAIR      29  18  62 SW6       30.48F WCI  23

$$

VAZ025>031-130700-
SHENANDOAH VALLEY

CITY           SKY/WX    TMP DP  RH WIND       PRES   REMARKS
WINCHESTER*    MOCLDY    30  19  64 SE6       30.45F WCI  24
FRONT ROYAL*   MOCLDY    28  19  69 CALM      30.45F
LURAY*         FAIR      30  23  74 CALM      30.45F
NEW MARKET*    FAIR      25  22  86 CALM      30.45F
STAUNTON*      FAIR      28  19  70 S6        30.45F WCI  21
WAYNESBORO*    FAIR      28  19  67 CALM      30.43F

$$

WVZ021-048>050-054>055-130700-
EASTERN WEST VIRGINIA PANHANDLE

CITY           SKY/WX    TMP DP  RH WIND       PRES   REMARKS
MARTINSBURG    CLOUDY    30  20  66 SE5       30.48F WCI  25
PETERSBURG*    FAIR      28  21  76 CALM      30.42F

$$

VAZ036>039-050-130700-
CENTRAL FOOTHILLS

CITY           SKY/WX    TMP DP  RH WIND       PRES   REMARKS
CHARLOTTESVILL CLOUDY    31  22  69 CALM      30.48F
CULPEPER*      CLOUDY    31  25  77 CALM      30.52F
ORANGE*        CLOUDY    30  25  80 CALM      30.50F
GORDONSVILLE*  CLOUDY    30  28  92 CALM      30.49F
WARRENTON*     CLOUDY    32  25  76 CALM      30.50F

$$

VAZ055>057-130700-
NORTH AND CENTRAL PIEDMONT

CITY           SKY/WX    TMP DP  RH WIND       PRES   REMARKS
FREDERICKSBRG* MOCLDY    29  27  92 CALM      30.51F
STAFFORD*      MOCLDY    29  28  97 CALM      30.55F

$$

NCZ024-NYZ072-PAZ021-071-VAZ022-071-130700-
OTHER REGIONAL OBSERVATIONS

CITY           SKY/WX    TMP DP  RH WIND       PRES   REMARKS
NEW YORK CITY  FAIR      35  25  66 CALM      30.61F
PHILADELPHIA   CLOUDY    30  19  63 NE6       30.54F WCI  24
PITTSBURGH     CLOUDY    30  18  60 SE5       30.26F WCI  25
ROANOKE        CLOUDY    31  20  63 CALM      30.45F
RICHMOND       CLOUDY    31  25  78 N8        30.48F WCI  23
RALEIGH        CLOUDY    37  28  70 NE6       30.42F WCI  32

$$

ANZ530>537-130700-
MARINE OBSERVATIONS

STATION/POSITION TIME  TEMP    WIND        PRES
                       AIR SEA DIR/SP/G
                 (UTC) (F)     (DEG/KT/KT) (MB)
THOMAS PT LIGHT  0600   36 44   40/  6/  7 1033.9F
BALT KEY BRIDGE  0530   36      60/  4/  7 1034.2F
LEWISETTA        0518   41 43  100/ 11/ 13 1032.9
SOLOMONS ISLAND  0524   38 46   90/  8/ 11 1032.8
PINEY POINT      0530           20/  2/  3   N/A

$$




USA.gov is the U.S. government's official web portal to all federal, state and local government web resources and services.